Tracking 19574 objects as of 16-Feb-2019
HD Live streaming from Space Station
objects crossing your sky now

INTELSAT 3-F2

Track INTELSAT 3-F2 now!
INTELSAT 3-F2 is classified as:


NORAD ID: 3623
Int'l Code: 1968-116A
Perigee: 38,417.8 km
Apogee: 39,340.0 km
Inclination: 10.8 °
Period: 1,596.6 minutes
Semi major axis: 45249 km
RCS: 2.5118 m2 (large)
Launch date: December 19, 1968
Source: International Telecommunications Satellite Organization (ITSO)
Launch site: AIR FORCE EASTERN TEST RANGE (AFETR)
aabbcc
Your satellite tracking list
Your tracking list is empty




NASA's NSSDC Master Catalog

Two Line Element Set (TLE):
1  3623U 68116A   19047.28931866 -.00000117  00000-0  00000+0 0  9999
2  3623  10.7521 312.2114 0101897  27.0537 182.6017  0.90193779101895
Source of the keplerian elements: AFSPC